Tracking 20621 objects as of 1-Apr-2020
HD Live streaming from Space Station
objects crossing your sky now

COSMOS 1249 COOLANT

Track COSMOS 1249 COOLANT now!
10-day predictions


NORAD ID: 26505
Int'l Code: 1981-021G
Perigee: 883.5 km
Apogee: 978.1 km
Inclination: 65.0 °
Period: 103.5 minutes
Semi major axis: 7301 km
RCS: 0.0062 m2 (small)
Launch date: March 5, 1981
Source: Commonwealth of Independent States (former USSR) (CIS)
Launch site: TYURATAM MISSILE AND SPACE COMPLEX (TTMTR)

Note: This is SATELLITE DEBRIS
aabbcc
Your satellite tracking list
Your tracking list is empty




NASA's NSSDC Master Catalog

Two Line Element Set (TLE):
1 26505U 81021G   20073.90537068  .00000001  00000-0  71035-4 0  9991
2 26505  64.9645 178.8832 0064754 267.4851  91.8799 13.91424407 22350
Source of the keplerian elements: AFSPC